User: anonymous   Login
Location: Unspecified
(0.0000°N, 0.0000°E)
Time: 02:58:34
(UTC+00:00)
Language:

MERIDIAN 7 - Orbit

View from above orbital plane
View from above orbital plane
View from above satellite
View from above satellite

Ground track
Ground track

The orbit data is extracted from the following two-line orbital elements,

1 40296U 14069A   17232.34280681  .00000226  00000-0  00000+0 0  9997
2 40296  62.8217 236.2961 6929996 275.1029 215.7412  2.00608098 20573
Epoch (UTC): 20 August 2017 08:13:38
Eccentricity: 0.6929996
inclination: 62.8217°
perigee height: 1774 km
apogee height: 38581 km
right ascension of ascending node: 236.2961°
argument of perigee: 275.1029°
revolutions per day: 2.00608098
mean anomaly at epoch: 215.7412°
orbit number at epoch: 2057

The dashed part of the orbit path shows where the satellite is in the earth's shadow,  

DLR